Weather History for Atka, AK

Change the Weather History Date:

Thursday, May 3, 2012

  Actual Average (PADK) Record (PADK)
Temperature  
Mean Temperature 37 °F -  
Max Temperature 39 °F 42 °F 58 °F (1952)
Min Temperature 35 °F 33 °F 20 °F (1971)
Degree Days  
Heating Degree Days 28    
Moisture  
Dew Point 32 °F    
Average Humidity 80    
Maximum Humidity 93    
Minimum Humidity 70    
Precipitation  
Precipitation 0.00 in - - ()
Sea Level Pressure  
Sea Level Pressure 30.22 in    
Wind  
Wind Speed 19 mph (NW)    
Max Wind Speed 26 mph    
Max Gust Speed 36 mph    
Visibility 8 miles    
Events      
Averages and records for this station are not official NWS values.
T = Trace of Precipitation, MM = Missing Value Source: NWS Daily Summary

Daily Weather History Graph

Daily Weather History Graph

Search for Another Location

Airport:

Trip Planner

Search our weather history database for the weather conditions in past years. The results will help you decide how hot, cold, wet, or windy it might be!

Date:

Astronomy

May. 03, 2012 Rise Set
Actual Time 7:01 AM HADT 10:07 PM HADT
Civil Twilight 6:21 AM HADT 10:47 PM HADT
Nautical Twilight 5:29 AM HADT 11:39 PM HADT
Astronomical Twilight 4:21 AM HADT 12:49 AM HADT
Moon 7:35 PM HADT (5/3) 5:32 AM HADT (5/3)
Length of Visible Light 16h 25m
Length of Day
15h 06m
Waxing Gibbous, 92% of the Moon is Illuminated
May 3
Waxing Gibbous
May 5
Full
May 12
Last Quarter
May 20
New
May 28
First Quarter

Hourly Weather History & Observations

Time (HADT) Temp. Windchill Dew Point Humidity Pressure Visibility Wind Dir Wind Speed Gust Speed Precip Events Conditions
12:16 AM 39.2 °F 29.3 °F 35.6 °F 87% 30.23 in 9.0 mi WNW 20.7 mph 31.1 mph N/A   Overcast
12:36 AM 39.2 °F 28.7 °F 35.6 °F 87% 30.22 in 10.0 mi WNW 23.0 mph 31.1 mph N/A   Overcast
12:56 AM 39.2 °F 29.3 °F 35.6 °F 87% 30.22 in 10.0 mi WNW 20.7 mph 31.1 mph N/A   Overcast
1:16 AM 39.2 °F 28.7 °F 35.6 °F 87% 30.22 in 6.0 mi WNW 23.0 mph 35.7 mph N/A   Overcast
1:36 AM 39.2 °F 29.0 °F 35.6 °F 87% 30.22 in 8.0 mi WNW 21.9 mph 31.1 mph N/A   Overcast
1:56 AM 39.2 °F 28.7 °F 35.6 °F 87% 30.22 in 10.0 mi WNW 23.0 mph 29.9 mph N/A   Overcast
2:16 AM 39.2 °F 29.8 °F 35.6 °F 87% 30.23 in 7.0 mi WNW 18.4 mph 29.9 mph N/A   Overcast
2:36 AM 39.2 °F 30.5 °F 35.6 °F 87% 30.23 in 3.0 mi WNW 16.1 mph 28.8 mph N/A   Overcast
2:56 AM 39.2 °F 28.7 °F 33.8 °F 81% 30.22 in 5.0 mi WNW 23.0 mph 29.9 mph N/A   Overcast
3:16 AM 39.2 °F 29.0 °F 33.8 °F 81% 30.22 in 5.0 mi WNW 21.9 mph 27.6 mph N/A   Overcast
3:36 AM 39.2 °F 28.5 °F 33.8 °F 81% 30.21 in 4.0 mi WNW 24.2 mph 32.2 mph N/A   Overcast
3:56 AM 39.2 °F 28.7 °F 33.8 °F 81% 30.22 in 7.0 mi WNW 23.0 mph 31.1 mph N/A   Overcast
4:16 AM 39.2 °F 28.3 °F 33.8 °F 81% 30.22 in 8.0 mi West 25.3 mph 32.2 mph N/A   Overcast
4:36 AM 39.2 °F 28.7 °F 33.8 °F 81% 30.22 in 5.0 mi WNW 23.0 mph 28.8 mph N/A   Overcast
4:56 AM 39.2 °F 28.0 °F 33.8 °F 81% 30.21 in 10.0 mi West 26.5 mph 32.2 mph N/A   Overcast
5:16 AM 37.4 °F 26.1 °F 33.8 °F 87% 30.21 in 5.0 mi WNW 24.2 mph 33.4 mph N/A   Overcast
5:36 AM 37.4 °F 26.6 °F 32.0 °F 81% 30.23 in 10.0 mi WNW 21.9 mph 31.1 mph N/A   Overcast
5:56 AM 37.4 °F 27.5 °F 33.8 °F 87% 30.23 in 8.0 mi WNW 18.4 mph 27.6 mph N/A   Overcast
6:16 AM 37.4 °F 25.9 °F 32.0 °F 81% 30.23 in 5.0 mi WNW 25.3 mph - N/A   Overcast
6:36 AM 37.4 °F 27.5 °F 33.8 °F 87% 30.23 in 5.0 mi NW 18.4 mph - N/A   Overcast
6:56 AM 37.4 °F 26.1 °F 32.0 °F 81% 30.23 in 10.0 mi WNW 24.2 mph - N/A   Overcast
7:36 AM 37.4 °F 25.9 °F 32.0 °F 81% 30.22 in 6.0 mi WNW 25.3 mph 28.8 mph N/A   Overcast
7:56 AM 35.6 °F 23.7 °F 33.8 °F 93% 30.23 in 3.0 mi NW 24.2 mph 28.8 mph N/A   Overcast
8:16 AM 35.6 °F 24.0 °F 32.0 °F 87% 30.23 in 7.0 mi NW 23.0 mph 28.8 mph N/A   Overcast
8:36 AM 35.6 °F 24.2 °F 33.8 °F 93% 30.23 in 4.0 mi NW 21.9 mph 25.3 mph N/A   Overcast
8:56 AM 37.4 °F 27.8 °F 33.8 °F 87% 30.24 in 5.0 mi NW 17.3 mph - N/A   Overcast
9:16 AM 37.4 °F 26.1 °F 33.8 °F 87% 30.24 in 5.0 mi WNW 24.2 mph 28.8 mph N/A   Overcast
9:36 AM 37.4 °F 27.2 °F 33.8 °F 87% 30.24 in 3.0 mi NW 19.6 mph 26.5 mph N/A   Overcast
9:56 AM 37.4 °F 27.2 °F 33.8 °F 87% 30.25 in 5.0 mi NW 19.6 mph 24.2 mph N/A   Overcast
10:16 AM 37.4 °F 27.8 °F 33.8 °F 87% 30.25 in 5.0 mi NW 17.3 mph 25.3 mph N/A   Overcast
10:36 AM 37.4 °F 27.2 °F 32.0 °F 81% 30.25 in 10.0 mi NW 19.6 mph 26.5 mph N/A   Overcast
10:56 AM 37.4 °F 27.5 °F 32.0 °F 81% 30.25 in 10.0 mi NW 18.4 mph 26.5 mph N/A   Overcast
11:16 AM 37.4 °F 27.8 °F 30.2 °F 75% 30.26 in 10.0 mi NW 17.3 mph - N/A   Overcast
11:36 AM 37.4 °F 27.5 °F 30.2 °F 75% 30.26 in 10.0 mi NW 18.4 mph 23.0 mph N/A   Overcast
11:56 AM 37.4 °F 28.2 °F 30.2 °F 75% 30.26 in 10.0 mi NW 16.1 mph 21.9 mph N/A   Overcast
12:16 PM 39.2 °F 30.8 °F 30.2 °F 70% 30.26 in 10.0 mi NW 15.0 mph - N/A   Overcast
12:36 PM 39.2 °F 29.8 °F 30.2 °F 70% 30.26 in 9.0 mi NW 18.4 mph 21.9 mph N/A   Overcast
12:56 PM 39.2 °F 30.8 °F 32.0 °F 75% 30.26 in 10.0 mi NW 15.0 mph 20.7 mph N/A   Overcast
1:16 PM 39.2 °F 31.2 °F 30.2 °F 70% 30.26 in 10.0 mi NW 13.8 mph - N/A   Overcast
1:36 PM 37.4 °F 29.3 °F 30.2 °F 75% 30.26 in 10.0 mi NW 12.7 mph - N/A   Overcast
1:56 PM 37.4 °F 28.5 °F 30.2 °F 75% 30.25 in 10.0 mi WNW 15.0 mph - N/A   Overcast
2:16 PM 37.4 °F 27.8 °F 30.2 °F 75% 30.25 in 10.0 mi WNW 17.3 mph - N/A   Overcast
2:36 PM 37.4 °F 28.9 °F 30.2 °F 75% 30.25 in 10.0 mi WNW 13.8 mph - N/A   Overcast
2:56 PM 39.2 °F 30.2 °F 30.2 °F 70% 30.24 in 10.0 mi WNW 17.3 mph - N/A   Overcast
3:16 PM 39.2 °F 30.5 °F 30.2 °F 70% 30.24 in 10.0 mi WNW 16.1 mph 20.7 mph N/A   Overcast
3:36 PM 39.2 °F 30.5 °F 30.2 °F 70% 30.23 in 10.0 mi WNW 16.1 mph 19.6 mph N/A   Overcast
3:56 PM 39.2 °F 32.5 °F 30.2 °F 70% 30.23 in 10.0 mi NW 10.4 mph 18.4 mph N/A   Overcast
4:16 PM 39.2 °F 31.2 °F 30.2 °F 70% 30.23 in 10.0 mi NW 13.8 mph - N/A   Overcast
4:36 PM 37.4 °F 29.8 °F 30.2 °F 75% 30.23 in 10.0 mi WNW 11.5 mph - N/A   Overcast
4:56 PM 37.4 °F 30.3 °F 30.2 °F 75% 30.22 in 10.0 mi WNW 10.4 mph - N/A   Overcast
5:16 PM 37.4 °F 29.3 °F 30.2 °F 75% 30.22 in 10.0 mi NW 12.7 mph - N/A   Overcast
5:36 PM 37.4 °F 29.3 °F 30.2 °F 75% 30.22 in 10.0 mi NW 12.7 mph - N/A   Overcast
5:56 PM 37.4 °F 28.9 °F 30.2 °F 75% 30.21 in 10.0 mi WNW 13.8 mph - N/A   Overcast
6:16 PM 37.4 °F 31.4 °F 30.2 °F 75% 30.21 in 10.0 mi WNW 8.1 mph - N/A   Overcast
6:36 PM 37.4 °F 30.3 °F 32.0 °F 81% 30.20 in 10.0 mi NW 10.4 mph - N/A   Overcast
6:56 PM 37.4 °F 30.3 °F 32.0 °F 81% 30.20 in 10.0 mi WNW 10.4 mph - N/A   Overcast
7:16 PM 37.4 °F 29.8 °F 32.0 °F 81% 30.20 in 10.0 mi WNW 11.5 mph - N/A   Overcast
7:36 PM 37.4 °F 29.8 °F 32.0 °F 81% 30.19 in 10.0 mi NW 11.5 mph - N/A   Overcast
7:56 PM 37.4 °F 29.8 °F 28.4 °F 70% 30.19 in 10.0 mi WNW 11.5 mph - N/A   Overcast
8:16 PM 37.4 °F 29.8 °F 30.2 °F 75% 30.19 in 10.0 mi WNW 11.5 mph - N/A   Overcast
8:36 PM 37.4 °F 30.3 °F 30.2 °F 75% 30.19 in 10.0 mi NW 10.4 mph - N/A   Overcast
8:56 PM 37.4 °F 30.8 °F 30.2 °F 75% 30.19 in 10.0 mi NW 9.2 mph - N/A   Overcast
9:16 PM 37.4 °F 33.8 °F 30.2 °F 75% 30.18 in 10.0 mi NW 4.6 mph - N/A   Overcast
9:36 PM 37.4 °F 31.4 °F 30.2 °F 75% 30.18 in 10.0 mi NW 8.1 mph - N/A   Overcast
9:56 PM 37.4 °F 30.3 °F 30.2 °F 75% 30.18 in 10.0 mi NW 10.4 mph - N/A   Overcast
10:16 PM 35.6 °F 29.2 °F 30.2 °F 81% 30.18 in 10.0 mi NW 8.1 mph - N/A   Overcast
10:36 PM 35.6 °F 29.2 °F 30.2 °F 81% 30.18 in 10.0 mi NW 8.1 mph - N/A   Overcast
10:56 PM 35.6 °F 29.2 °F 30.2 °F 81% 30.18 in 8.0 mi WNW 8.1 mph - N/A   Overcast
11:16 PM 35.6 °F 29.9 °F 32.0 °F 87% 30.17 in 10.0 mi WNW 6.9 mph - N/A   Overcast
11:36 PM 35.6 °F 29.9 °F 32.0 °F 87% 30.17 in 10.0 mi WNW 6.9 mph - N/A   Overcast
11:56 PM 35.6 °F 31.7 °F 32.0 °F 87% 30.17 in 10.0 mi WNW 4.6 mph - N/A   Overcast